985  
AXUS43 KGID 181002  
MISGRI  
 
GID CWA HOURLY WEATHER ROUNDUP  
NATIONAL WEATHER SERVICE HASTINGS NE  
500 AM CDT FRI SEP 18 2020  
 
NOTE: "FAIR" INDICATES FEW OR NO CLOUDS BELOW 12,000 FEET WITH NO  
SIGNIFICANT WEATHER AND/OR OBSTRUCTIONS TO VISIBILITY.  
   
..SOUTH CENTRAL NEBRASKA
 
 
 
CITY SKY/WX TMP DP RH WIND PRES REMARKS  
GRAND ISLAND MOCLDY 53 49 86 CALM 30.27R  
KEARNEY MOCLDY 52 50 93 E6 30.26S  
HASTINGS CLOUDY 58 49 72 SE9 30.27R  
ORD FAIR 48 46 93 CALM 30.26R  
YORK MOCLDY 50 48 93 CALM 30.27R  
AURORA MOCLDY 53 51 94 E3 30.27S  
LEXINGTON FAIR 54 52 92 E5 30.24S  
HOLDREGE FAIR 53 51 92 SE5 30.24R  
HEBRON FAIR 49 49 97 CALM 30.26S  
   
..NEBRASKA PANHANDLE
 
 
 
CITY SKY/WX TMP DP RH WIND PRES REMARKS  
CHADRON FAIR 42 41 96 SW5 30.27S  
ALLIANCE FAIR 39 37 92 W3 30.27S  
SCOTTSBLUFF FAIR 46 43 89 NW5 30.28S  
SIDNEY FAIR 47 42 83 N3 30.26S  
   
..WESTERN AND NORTH CENTRAL NEBRASKA
 
 
 
CITY SKY/WX TMP DP RH WIND PRES REMARKS  
VALENTINE FAIR 49 45 86 NE6 30.25S  
AINSWORTH FAIR 48 48 99 E5 30.26R  
ONEILL FAIR 52 43 71 E10 30.30R  
BROKEN BOW FAIR 52 50 93 E3 30.25S  
IMPERIAL FAIR 50 49 96 NE5 30.21R  
NORTH PLATTE FAIR 53 50 89 E3 30.23R  
MCCOOK FAIR 54 50 86 SE6 30.21F FOG  
   
..EASTERN NEBRASKA
 
 
 
CITY SKY/WX TMP DP RH WIND PRES REMARKS  
NORFOLK MOCLDY 52 40 63 E7 30.31R  
SO SIOUX CITY CLOUDY 51 40 65 E5 30.34R  
TEKAMAH CLOUDY 49 44 83 CALM 30.32R  
COLUMBUS FAIR 50 43 77 E7 30.31R  
ALBION CLOUDY 51 44 75 E6 30.30R  
OMAHA EPPLEY FAIR 52 41 66 N3 30.31R  
OFFUTT AFB FAIR 50 41 71 NE7 30.30R  
MILLARD FAIR 54 40 59 CALM 30.30S  
LINCOLN CLOUDY 53 47 79 NE5 30.30R  
NEBRASKA CITY FAIR 49 49 98 NE3 30.29R  
BEATRICE FAIR 52 49 89 CALM 30.27R  
FALLS CITY FAIR 52 47 83 NE5 30.26R  
   
..NORTHERN KANSAS
 
 
 
CITY SKY/WX TMP DP RH WIND PRES REMARKS  
GOODLAND FAIR 61 47 59 SW13 30.21S  
HILL CITY FAIR 53 51 93 E6 30.23S  
NORTON FAIR 55 52 88 SE6 30.26S  
PHILLIPSBURG CLEAR 54 54 100 E5 30.24S  
OBERLIN FAIR 55 54 96 SE5 30.26S  
SMITH CENTER FAIR 54 52 94 E8 30.25S  
HAYS FAIR 54 51 90 E5 30.24R  
RUSSELL FAIR 55 49 80 E8 30.22S  
CONCORDIA FAIR 53 49 86 CALM 30.25R  
SALINA FAIR 54 52 93 CALM 30.24R  
TOPEKA FAIR 52 49 89 CALM 30.23R  
 
CLICK HERE TO GO TO PREVIOUS BULLETINS.

The Nexlab NE Page
The Nexlab KS Page Main Text Page